Weather History for Burns, OR

Change the Weather History Date:

Wednesday, October 31, 2012

  Actual Average Record
Temperature  
Mean Temperature 49 °F 39 °F  
Max Temperature 63 °F 54 °F 73 °F (1967)
Min Temperature 35 °F 25 °F -7 °F (2002)
Degree Days  
Heating Degree Days 16 26  
Month to date heating degree days 637 632  
Since 1 July heating degree days 825 1050  
Cooling Degree Days 0 0  
Month to date cooling degree days 0 0  
Year to date cooling degree days 309 215  
Moisture  
Dew Point 32 °F    
Average Humidity 57    
Maximum Humidity 89    
Minimum Humidity 25    
Precipitation  
Precipitation T in 0.03 in 0.38 in (1944)
Month to date precipitation 0.77 0.78  
Year to date precipitation 7.20 8.20  
Sea Level Pressure  
Sea Level Pressure 29.89 in    
Wind  
Wind Speed 6 mph (South)    
Max Wind Speed 23 mph    
Max Gust Speed 31 mph    
Visibility 9 miles    
Events Rain    
T = Trace of Precipitation, MM = Missing Value Source: NWS Daily Summary

Daily Weather History Graph

Daily Weather History Graph

Search for Another Location

Airport:

Trip Planner

Search our weather history database for the weather conditions in past years. The results will help you decide how hot, cold, wet, or windy it might be!

Date:

Astronomy

Oct. 31, 2012 Rise Set
Actual Time 7:30 AM PDT 5:47 PM PDT
Civil Twilight 7:01 AM PDT 6:17 PM PDT
Nautical Twilight 6:27 AM PDT 6:50 PM PDT
Astronomical Twilight 5:53 AM PDT 7:24 PM PDT
Moon 6:58 PM PDT (10/31) 9:19 AM PDT (10/31)
Length of Visible Light 11h 15m
Length of Day
10h 16m
Waning Gibbous, 97% of the Moon is Illuminated
Oct 31
Waning Gibbous
Nov 6
Last Quarter
Nov 13
New
Nov 20
First Quarter
Nov 28
Full

Hourly Weather History & Observations

Time (PDT) Temp. Windchill Dew Point Humidity Pressure Visibility Wind Dir Wind Speed Gust Speed Precip Events Conditions
12:53 AM 39.0 °F - 34.0 °F 82% 29.96 in 10.0 mi Calm Calm - N/A   Clear
1:53 AM 39.9 °F - 33.1 °F 77% 29.94 in 10.0 mi Calm Calm - N/A   Clear
2:53 AM 41.0 °F 39.0 °F 33.1 °F 73% 29.93 in 10.0 mi West 3.5 mph - N/A   Clear
3:53 AM 39.0 °F - 33.1 °F 79% 29.92 in 10.0 mi Calm Calm - N/A   Clear
4:53 AM 37.9 °F 34.4 °F 33.1 °F 83% 29.93 in 10.0 mi West 4.6 mph - N/A   Clear
5:53 AM 37.0 °F - 32.0 °F 82% 29.94 in 10.0 mi Calm Calm - N/A   Clear
6:53 AM 36.0 °F - 32.0 °F 86% 29.95 in 10.0 mi Calm Calm - N/A   Clear
7:53 AM 36.0 °F 33.3 °F 30.9 °F 82% 29.95 in 10.0 mi SW 3.5 mph - N/A   Clear
8:53 AM 37.0 °F - 33.1 °F 86% 29.97 in 10.0 mi Calm Calm - N/A   Clear
9:53 AM 48.9 °F - 35.1 °F 59% 29.94 in 10.0 mi NE 3.5 mph - N/A   Clear
10:53 AM 57.0 °F - 30.0 °F 36% 29.91 in 10.0 mi East 4.6 mph - N/A   Clear
11:53 AM 60.1 °F - 30.9 °F 33% 29.88 in 10.0 mi SE 10.4 mph - N/A   Clear
12:53 PM 62.1 °F - 28.0 °F 28% 29.86 in 10.0 mi SE 6.9 mph - N/A   Clear
1:53 PM 62.1 °F - 28.9 °F 29% 29.83 in 10.0 mi SE 8.1 mph - N/A   Clear
2:53 PM 62.1 °F - 26.1 °F 25% 29.81 in 10.0 mi SSE 9.2 mph - N/A   Clear
3:53 PM 60.1 °F - 26.1 °F 27% 29.82 in 9.0 mi SSE 10.4 mph - N/A   Clear
4:53 PM 57.9 °F - 27.0 °F 31% 29.83 in 10.0 mi SSE 9.2 mph - N/A   Mostly Cloudy
5:53 PM 57.0 °F - 27.0 °F 32% 29.81 in 8.0 mi SSE 10.4 mph - N/A   Overcast
6:40 PM 53.6 °F - 33.8 °F 47% 29.86 in 5.0 mi WSW 13.8 mph - N/A   Haze
6:53 PM 53.1 °F - 35.1 °F 50% 29.87 in 5.0 mi WSW 19.6 mph 25.3 mph N/A   Haze
7:53 PM 50.0 °F - 36.0 °F 59% 29.91 in 5.0 mi WSW 13.8 mph - N/A   Haze
8:53 PM 48.9 °F - 36.0 °F 61% 29.90 in 6.0 mi SW 15.0 mph - N/A   Haze
9:53 PM 46.9 °F - 37.0 °F 68% 29.88 in 7.0 mi Calm Calm - N/A   Overcast
10:53 PM 45.0 °F 42.6 °F 37.9 °F 76% 29.87 in 10.0 mi East 4.6 mph - 0.00 in Rain Light Rain
11:53 PM 43.0 °F - 37.9 °F 82% 29.89 in 10.0 mi Calm Calm - 0.00 in   Mostly Cloudy